Address 0x4ed2dc927975d037c1bdf40f532a0732e6a2e0fe 1

 
Txn Hash Method
Block
From
To
Value [Txn Fee]
0x563e900f679c3fe746d583329ce4878cfea0d1cf13369b41f0141ee185066d4eTransfer564502732023-01-29 20:19:298 hrs 52 mins ago0x4ed2dc927975d037c1bdf40f532a0732e6a2e0feOUT Mycelium: MYC Token0 ETH0.00008028
0x4f8b557a89d10979164ec5999754a0b48270e0a49eaba1e382cbe90ce4ae923eTransfer564499312023-01-29 20:17:278 hrs 55 mins ago0x4ed2dc927975d037c1bdf40f532a0732e6a2e0feOUT Mycelium: MYC Token0 ETH0.00008028
0xdef9c35a0a163049a6a7812f6048670cf0d8c7be966b25bd504d97bb6dcf45baTransfer564346192023-01-29 19:01:2710 hrs 11 mins ago0x4ed2dc927975d037c1bdf40f532a0732e6a2e0feOUT Mycelium: MYC Token0 ETH0.0000985
0x266235716903b27c62962087401508e876770cb980c2e3877b96bdd78252bc4cTransfer563832092023-01-29 14:37:2314 hrs 35 mins ago0x4ed2dc927975d037c1bdf40f532a0732e6a2e0feOUT Mycelium: MYC Token0 ETH0.00007187
0x23cfeeb51316aeef25cf5e1e1e46ed7720db3c965a28c56d33fe56566f07b72bTransfer563814562023-01-29 14:29:2714 hrs 43 mins ago0x4ed2dc927975d037c1bdf40f532a0732e6a2e0feOUT Mycelium: MYC Token0 ETH0.00006878
0x6b8d00c94507823e8372959eb0359335c8b1afc12dd141b7023fb3416fcbe50bTransfer563474352023-01-29 11:37:2517 hrs 35 mins ago0x4ed2dc927975d037c1bdf40f532a0732e6a2e0feOUT Mycelium: MYC Token0 ETH0.00007197
0x0c33fe8e303b3cbe2b09a28d6175ddcb6e004e6935299e2235068143e1a67654Transfer562972712023-01-29 7:01:2422 hrs 11 mins ago0x4ed2dc927975d037c1bdf40f532a0732e6a2e0feOUT Sperax: SPA Token0 ETH0.00005969
0xf3e8408d1f8ebfcb66c69b13f462b463baa37a96d354ca922e94b8051308d83dTransfer562809882023-01-29 5:15:2223 hrs 57 mins ago0x4ed2dc927975d037c1bdf40f532a0732e6a2e0feOUT Sperax: SPA Token0 ETH0.00006683
0x3d1b94a211f77b91a332b5edff25b263c3eecf20bb0f05b0a31e2422f9ca6f0bTransfer562715942023-01-29 4:05:271 day 1 hr ago0x4ed2dc927975d037c1bdf40f532a0732e6a2e0feOUT Mycelium: MYC Token0 ETH0.00007088
0x26c014d85cb7794e88402e6018d403e88a924ea9a9ac53318bbbe84c58de1c9cTransfer562703482023-01-29 3:57:231 day 1 hr ago0x4ed2dc927975d037c1bdf40f532a0732e6a2e0feOUT Mycelium: MYC Token0 ETH0.00007407
0x5daab5f4d14b929bef30f1a9cdb64130e75c40aa3c7e936bea9259f5a1371508Transfer562541002023-01-29 2:01:491 day 3 hrs ago0xab0cb0ecd25ea1f416b2bd62ebdce6d43fc10232 IN 0x4ed2dc927975d037c1bdf40f532a0732e6a2e0fe0.0724683329 ETH0.000023
0xcb1073f70cf0c37d9bcf0af42e558bab35ed2686132984856eee0da334e82875Transfer562179302023-01-28 21:23:431 day 7 hrs ago0xbde8dbe8b2e695716a7fd8f3849554bac3d3272e IN 0x4ed2dc927975d037c1bdf40f532a0732e6a2e0fe0.067079251 ETH0.00002074
0x51c292a122a3ca470d76af12ccb322cee3304b774bfde233f28a9c8af9c06b36Transfer562175182023-01-28 21:20:431 day 7 hrs ago0xbde8dbe8b2e695716a7fd8f3849554bac3d3272e IN 0x4ed2dc927975d037c1bdf40f532a0732e6a2e0fe0.009979251 ETH0.00002074
0xf821b6f2e93815760f56d091d60106ca236d5426a2af2f81530b70d3cdbac542Transfer562171182023-01-28 21:17:421 day 7 hrs ago0xbde8dbe8b2e695716a7fd8f3849554bac3d3272e IN 0x4ed2dc927975d037c1bdf40f532a0732e6a2e0fe0.035021461882814 ETH0.00002074
0x883baef4996c6741b8007666c0b3b7e4e9158eefb597bb3256de999d75bc51f1Transfer562159812023-01-28 21:09:421 day 8 hrs ago0xbde8dbe8b2e695716a7fd8f3849554bac3d3272e IN 0x4ed2dc927975d037c1bdf40f532a0732e6a2e0fe0.0929862505 ETH0.00001787
0x51d866b441aec6dcb95173dfd10a2631448d553fb3ed5bd489711c97ff2a73fdTransfer560271162023-01-28 3:37:222 days 1 hr ago0x4ed2dc927975d037c1bdf40f532a0732e6a2e0feOUT Mycelium: MYC Token0 ETH0.0000636
0x09a1ae2c85cdd2b8b7e1fa3abd70002429b9b0b8e781f1520b63256a964d7599Transfer560099182023-01-28 1:59:272 days 3 hrs ago0x4ed2dc927975d037c1bdf40f532a0732e6a2e0feOUT Mycelium: MYC Token0 ETH0.0000652
0x9afe7a9b8aeead35c45cb2f267a6149faef7fa0e2dd377a26cad28eab6c33f3aTransfer560077132023-01-28 1:45:202 days 3 hrs ago0x4ed2dc927975d037c1bdf40f532a0732e6a2e0feOUT Mycelium: MYC Token0 ETH0.00006248
0x87de8a11027c7b894198272570085c24b3b3c97d565aed7b47025a828f9662bdTransfer560071142023-01-28 1:41:282 days 3 hrs ago0x4ed2dc927975d037c1bdf40f532a0732e6a2e0feOUT Mycelium: MYC Token0 ETH0.00006276
0x576cef7ab9055a93e031fd5d92ae84bdbdbcd6d223ef2aacd63cb3ff749d509fTransfer557618132023-01-27 3:47:213 days 1 hr ago0x4ed2dc927975d037c1bdf40f532a0732e6a2e0feOUT GMX: GMX Token0 ETH0.0000667
0x64bed6aae79c74a641996d790e8441e477f3e3ba7c284b323c0898874da66ec1Transfer555249072023-01-26 4:41:224 days 31 mins ago0x4ed2dc927975d037c1bdf40f532a0732e6a2e0feOUTTreasure DAO: Magic Token0 ETH0.00007015
0xf3a771fc1db0ea1f62b9e33032e2dcfc2d6e62d5bdb46b414cdda25f2ea91e11Transfer555166552023-01-26 3:41:234 days 1 hr ago0x4ed2dc927975d037c1bdf40f532a0732e6a2e0feOUT Mycelium: MYC Token0 ETH0.00007162
0xb18870a55dddde6ddcfbc67af763832b2eea38499e4828dd875ce1bfd2c01352Transfer555160892023-01-26 3:37:214 days 1 hr ago0x4ed2dc927975d037c1bdf40f532a0732e6a2e0feOUT Mycelium: MYC Token0 ETH0.00007373
0x822b1a057add9b92e2a894d8d91432e0b058d7c2be8a32d14ec9479da2c7878cTransfer555158492023-01-26 3:35:294 days 1 hr ago0x4ed2dc927975d037c1bdf40f532a0732e6a2e0feOUT Mycelium: MYC Token0 ETH0.00007373
0xb8f30b9834489a78b264c12e52eadd8a924e0385ce21c4f5b76656917f0cca3eTransfer555152292023-01-26 3:31:274 days 1 hr ago0x4ed2dc927975d037c1bdf40f532a0732e6a2e0feOUT Mycelium: MYC Token0 ETH0.00007394
[ Download CSV Export 
Parent Txn Hash Block From To Value
Loading

Contract Name:
0 ETH

Compiler Version
0

Optimization Enabled:
0 ETH

Other Settings:
-NA-
Block Transaction Gas Used Reward
Age Block Fee Address BC Fee Address Voting Power Jailed Incoming
Block Uncle Number Difficulty Gas Used Reward
Loading
Make sure to use the "Vote Down" button for any spammy posts, and the "Vote Up" for interesting conversations.